Location: LewisvilleTX
(33.0462°N, 96.9942°W)
Time: 07:34:17
(UTC+00:00)

Envisat - Pass Details

Date: 05 October 2021
Orbit: 764 x 766 km, 98.2° (Epoch: 25 October)

Event Time Altitude Azimuth Distance (km) Brightness Sun altitude
Rises 11:08:51 0° 18° (NNE) 3,233 6.6 -16.8°
Reaches altitude 10° 11:11:14 10° 24° (NNE) 2,303 5.8 -16.3°
Maximum altitude 11:16:10 51° 100° (E) 960 3.9 -15.3°
Drops below altitude 10° 11:21:04 10° 176° (S) 2,290 5.5 -14.3°
Sets 11:23:25 0° 181° (S) 3,212 6.2 -13.8°
